Regional Weather Roundup
Issued by NWS

Home | Current Version | Previous Version | Text Only | Print | Product List | Glossary Off
Versions: 1 2 3 4 5 6 7 8 9 10 11 12 13 14 15 16 17 18 19 20 21 22 23 24 25 26 27 28 29 30 31 32 33 34 35 36 37 38 39 40 41 42 43 44 45 46 47 48 49 50

000
ASUS45 KTFX 172110
RWRMT
MONTANA REGIONAL WEATHER ROUNDUP
NATIONAL WEATHER SERVICE GREAT FALLS MT
300 PM MDT THU AUG 17 2017

NOTE: "FAIR" INDICATES FEW OR NO CLOUDS BELOW 12000 FEET WITH NO
SIGNIFICANT WEATHER AND/OR OBSTRUCTIONS TO VISIBILITY.

MTZ001>007-043-172200-
WEST OF THE DIVIDE

CITY           SKY/WX    TMP DP  RH WIND       PRES   REMARKS
KALISPELL      SUNNY     82  45  27 SE15      30.02S
MISSOULA       MOSUNNY   82  42  24 S10       30.05F
BUTTE          SUNNY     75  34  22 VRB5      30.17F
MULLAN PASS    SUNNY     66  35  31 VRB3      30.24S
ANACONDA         N/A     77  39  25 NE7       30.13
DEER LODGE       N/A     79  36  21 NW7       30.13F
EUREKA           N/A     84  39  20 MISG      29.99S
HAMILTON         N/A     81  43  26 E5        30.08F
LIBBY            N/A     86  43  22 SW3       30.00S
PLAINS           N/A     85  42  22 SW1       30.04S
RONAN            N/A     82  48  30 E1        30.09F
$$

MTZ008-052>055-172200-
SOUTHWEST MONTANA

CITY           SKY/WX    TMP DP  RH WIND       PRES   REMARKS
BOZEMAN        SUNNY     80  39  23 NW12G21   30.10S
DILLON         SUNNY     78  37  22 N5        30.13F
W YELLOWSTONE  PTSUNNY   73  32  21 W15G24    30.23S
ENNIS          MOSUNNY   77  34  20 W9G17     30.19S
THREE FORKS      N/A     82  37  20 W7        30.07F
TWIN BRIDGES     N/A     80  35  19 CALM      30.11S
$$

MTZ009-010-012-014-046-048-049-054-172200-
EAST SLOPES AND CENTRAL MONTANA

CITY           SKY/WX    TMP DP  RH WIND       PRES   REMARKS
CUT BANK       PTSUNNY   78  37  22 N5        30.02F
GREAT FALLS    MOSUNNY   82  36  19 NE8G17    30.03S
MALMSTROM AFB  MOSUNNY   82  36  19 N12G18    30.02F
HELENA         MOSUNNY   82  36  19 CALM      30.05S
AUGUSTA          N/A     80  32  17 SW7       30.06F
BOWMANS CRNR     N/A     79  35  20 E8        30.04F
CHOTEAU          N/A     81  37  21 CALM      30.05F
FAIRFIELD      PTSUNNY   78  35  20 CALM      30.03F
POWER            N/A     80  35  19 NW9       30.03F
RAYNESFORD     PTSUNNY   80  36  20 NW12      30.05S
ULM            PTSUNNY   80  37  21 E5        30.03F
$$

MTZ011-013-016-021-045-047-050-051-172200-
NORTH CENTRAL MONTANA

CITY           SKY/WX    TMP DP  RH WIND       PRES   REMARKS
HAVRE          SUNNY     86  37  17 NW12      29.94F
LEWISTOWN      MOSUNNY   81  36  19 NW14G23   30.03F
N BAR RANCH      N/A     81  34  18 NW17G25   30.07S
CHINOOK          N/A     84  39  20 W8        29.93S
DENTON           N/A     81  37  20 NW17G29   29.97F
GEYSER         PTSUNNY   80  36  20 N15       30.03F
GRASS RANGE      N/A     81  32  17 W20G29    29.98S
JUDITH GAP       N/A     78  36  21 NW20G29   30.06S
WINIFRED         N/A     81  35  19 NW17      30.00S
$$

MTZ017>020-022>027-061-062-172200-
NORTHEAST MONTANA

CITY           SKY/WX    TMP DP  RH WIND       PRES   REMARKS
GLASGOW        SUNNY     85  41  21 N24G33    29.90R
JORDAN           N/A     90  33  13 NW17      29.90S
SIDNEY         SUNNY     86  44  23 NW16G24   29.84S
WOLF POINT     MOSUNNY   88  42  20 N13G22    29.86F
MALTA          SUNNY     82  39  21 CALM      29.92S
PLENTYWOOD       N/A     82  50  32 NW10G16   29.87S
POPLAR           N/A     82  46  28 NW10G17   29.87R
SCOBEY           N/A     82  45  27 NW5       29.91R
$$

MTZ028>42-056>058-172200-
SOUTHCENTRAL AND SOUTHEAST MONTANA

CITY           SKY/WX    TMP DP  RH WIND       PRES   REMARKS
BAKER          MOSUNNY   85  35  16 NW8       29.93S
BILLINGS       MOSUNNY   86  32  14 NW17      29.99S
LIVINGSTON     MOSUNNY   83  37  19 W20G25    30.07F
MILES CITY     SUNNY     87  34  15 SW16      29.90F
BIG TIMBER     SUNNY     81  34  18 W17G25    30.09S
EKALAKA          N/A     80  36  20 W12       29.96S
FORSYTH          N/A     84  34  16 W13G18    29.92S
HARLOWTON        N/A     83  29  14 MISG      30.04S
LAUREL           N/A     86  36  16 W13       29.99S
$$

REGIONAL REPORTS...DAKOTAS

CITY           SKY/WX    TMP DP  RH WIND       PRES   REMARKS
WILLISTON      SUNNY     85  54  34 W13       29.84R
MINOT          SUNNY     85  48  27 SE13G18   29.82F
DICKINSON      SUNNY     85  47  26 W15       29.86S
BISMARCK       SUNNY     82  53  36 S10       29.86S
GRAND FORKS    MOSUNNY   80  61  52 N9        29.83F
FARGO          MOSUNNY   79  61  53 NW15      29.84S
BUFFALO SD       N/A     76  45  33 N10       29.88S
RAPID CITY     PTSUNNY   85  40  20 W7G18     29.92F
$$

REGIONAL REPORTS...WYOMING/IDAHO/WASHINGTON

CITY           SKY/WX    TMP DP  RH WIND       PRES   REMARKS
SHERIDAN       PTSUNNY   72  45  37 E3        30.04S
BUFFALO WY     CLOUDY    81  36  19 N22       30.10R
CODY           SUNNY     73  43  33 N6        30.09S
YELLOWSTONE LA   N/A     67  32  27 VRB7G18   30.31S
IDAHO FALLS    SUNNY     82  38  20 SW14G20   30.15S
SALMON         SUNNY     81  41  24 VRB3      30.09F
BOISE          SUNNY     85  44  23 NW9G18    30.08F
SPOKANE        MOSUNNY   80  43  26 W8G16     30.08F
$$

REGIONAL REPORTS...ALBERTA

CITY           SKY/WX    TMP DP  RH WIND       PRES   REMARKS
EDMONTON       SUNNY     72  48  43 W14       29.93S
CALGARY        CLOUDY    75  43  31 E9        29.98F SMOKE
LETHBRIDGE     MOSUNNY   79  43  27 E7        29.99F
MEDICINE HAT   MOSUNNY   81  43  26 VRB2      29.94F
$$

REGIONAL REPORTS...SASKATCHEWAN

CITY           SKY/WX    TMP DP  RH WIND       PRES   REMARKS
SWIFT CURRENT  SUNNY     77  45  31 N12       29.95S
REGINA         CLOUDY    79  45  29 NW14G20   29.89S
SASKATOON      MOSUNNY   77  48  36 W13G20    29.88F
$$



USA.gov is the U.S. government's official web portal to all federal, state and local government web resources and services.